This is the latest recevied weather packets stored in our database for station/object N0HEQ. If no packets are shown the sender has not sent any weather packets the latest 10 day(s).
| Time | Temp. | Humidity | Pressure | Rain* | Wind** | Luminosity | Snow |
|---|---|---|---|---|---|---|---|
| 1777649520 | 8.89° C | 57% | 1023.9 hPa | 0 mm | - | 316 W/m² | - |
| 1777649215 | 8.33° C | 59% | 1023.5 hPa | 0 mm | - | 86 W/m² | - |
| 1777648912 | 8.33° C | 59% | 1023.9 hPa | 0 mm | - | 67 W/m² | - |
| 1777648610 | 8.33° C | 64% | 1023.8 hPa | 0 mm | - | 51 W/m² | - |
| 1777648307 | 7.78° C | 61% | 1024 hPa | 0 mm | - | 55 W/m² | - |
| 1777648003 | 7.78° C | 62% | 1023.9 hPa | 0 mm | - | 48 W/m² | - |
| 1777647699 | 7.78° C | 61% | 1023.8 hPa | 0 mm | - | 124 W/m² | - |
| 1777647395 | 7.78° C | 60% | 1023.6 hPa | 0 mm | - | 71 W/m² | - |
| 1777647093 | 7.78° C | 64% | 1023.9 hPa | 0 mm | - | 202 W/m² | - |
| 1777646790 | 7.22° C | 66% | 1023.9 hPa | 0 mm | - | 59 W/m² | - |
| 1777646490 | 7.22° C | 65% | 1023.8 hPa | 0 mm | - | 92 W/m² | - |
| 1777646186 | 6.67° C | 66% | 1023.9 hPa | 0 mm | - | 58 W/m² | - |
| 1777645884 | 6.67° C | 68% | 1024 hPa | 0 mm | - | 124 W/m² | - |
| 1777645581 | 6.67° C | 68% | 1024 hPa | 0 mm | - | 111 W/m² | - |
| 1777645277 | 6.67° C | 68% | 1023.9 hPa | 0 mm | - | 71 W/m² | - |
| 1777644973 | 6.11° C | 69% | 1023.9 hPa | 0 mm | - | 67 W/m² | - |
| 1777644671 | 6.11° C | 70% | 1023.9 hPa | 0 mm | - | 56 W/m² | - |
| 1777644367 | 6.11° C | 73% | 1023.8 hPa | 0 mm | - | 96 W/m² | - |
| 1777644063 | 5.56° C | 74% | 1024 hPa | 0 mm | - | 72 W/m² | - |
| 1777643760 | 5.56° C | 74% | 1023.9 hPa | 0 mm | - | 142 W/m² | - |
| 1777643458 | 5.56° C | 75% | 1023.8 hPa | 0 mm | - | 69 W/m² | - |
| 1777643154 | 5° C | 77% | 1023.8 hPa | 0 mm | - | 190 W/m² | - |
| 1777642850 | 5° C | 79% | 1023.8 hPa | 0 mm | - | 135 W/m² | - |
| 1777642548 | 4.44° C | 79% | 1023.6 hPa | 0 mm | - | 117 W/m² | - |
| 1777642244 | 3.89° C | 84% | 1023.6 hPa | 0 mm | - | 112 W/m² | - |
* Rain latest hour (hover to see other rain measurements)
** Current wind speed in m/s (hover to see current wind gust speed)